Location: Proctor
(47.8934°N, 114.3048°W)
Time: 16:49:10
(UTC+00:00)

Transit 4A - Pass Details

Date: 20 May 2025
Orbit: 866 x 975 km, 66.8° (Epoch: 13 June)

Event Time Altitude Azimuth Distance (km) Brightness Sun altitude
Rises 06:18:58 0° 304° (WNW) 3,639 11.8 -20.0°
Reaches altitude 10° 06:23:18 10° 331° (NNW) 2,671 11.4 -20.2°
Maximum altitude 06:26:00 13° 357° (N) 2,448 11.1 -20.4°
Drops below altitude 10° 06:28:41 10° 24° (NNE) 2,638 10.9 -20.5°
Sets 06:32:54 0° 52° (NE) 3,553 11.2 -20.7°
